Time,TemperatureF,DewpointF,PressureIn,WindDirection,WindDirectionDegrees,WindSpeedMPH,WindSpeedGustMPH,Humidity,HourlyPrecipIn,Conditions,Clouds,dailyrainin,SoftwareType,DateUTC
2013-10-26 00:07:00,26.5,23.0,30.45,NW,311,7.0,-999.0,85,-99.99,,,0.00,weatherlink.com 1.10,2013-10-26 04:07:00,
2013-10-26 00:22:00,27.0,23.0,30.44,WNW,287,5.0,-999.0,84,-99.99,,,0.00,weatherlink.com 1.10,2013-10-26 04:22:00,
2013-10-26 00:37:00,27.1,23.0,30.44,NW,311,6.0,-999.0,83,-99.99,,,0.00,weatherlink.com 1.10,2013-10-26 04:37:00,
2013-10-26 00:52:00,27.5,23.0,30.43,NW,313,4.0,-999.0,82,-99.99,,,0.00,weatherlink.com 1.10,2013-10-26 04:52:00,
2013-10-26 01:07:00,27.6,23.0,30.43,WNW,301,5.0,-999.0,82,-99.99,,,0.00,weatherlink.com 1.10,2013-10-26 05:07:00,
2013-10-26 01:22:00,27.4,23.0,30.43,NW,322,7.0,-999.0,82,-99.99,,,0.00,weatherlink.com 1.10,2013-10-26 05:22:00,
2013-10-26 01:37:00,27.6,23.0,30.42,NNW,328,6.0,-999.0,81,-99.99,,,0.00,weatherlink.com 1.10,2013-10-26 05:37:00,
2013-10-26 01:52:00,27.6,23.0,30.43,WNW,300,4.0,-999.0,81,-99.99,,,0.00,weatherlink.com 1.10,2013-10-26 05:52:00,
2013-10-26 02:07:00,28.0,23.0,30.42,WNW,302,4.0,-999.0,80,-99.99,,,0.00,weatherlink.com 1.10,2013-10-26 06:07:00,
2013-10-26 02:22:00,28.8,22.0,30.41,WNW,302,3.0,-999.0,77,-99.99,,,0.00,weatherlink.com 1.10,2013-10-26 06:22:00,
2013-10-26 02:37:00,28.6,23.0,30.41,NW,317,3.0,-999.0,78,-99.99,,,0.00,weatherlink.com 1.10,2013-10-26 06:37:00,
2013-10-26 02:52:00,28.2,22.0,30.41,NW,317,3.0,-999.0,78,-99.99,,,0.00,weatherlink.com 1.10,2013-10-26 06:52:00,
2013-10-26 03:07:00,28.3,22.0,30.41,NW,317,1.0,-999.0,77,-99.99,,,0.00,weatherlink.com 1.10,2013-10-26 07:07:00,
2013-10-26 03:22:00,28.6,22.0,30.40,NW,317,3.0,-999.0,76,-99.99,,,0.00,weatherlink.com 1.10,2013-10-26 07:22:00,
2013-10-26 03:37:00,28.3,22.0,30.40,NW,317,2.0,-999.0,77,-99.99,,,0.00,weatherlink.com 1.10,2013-10-26 07:37:00,
2013-10-26 03:52:00,28.1,22.0,30.39,NW,317,2.0,-999.0,77,-99.99,,,0.00,weatherlink.com 1.10,2013-10-26 07:52:00,
2013-10-26 04:07:00,28.2,22.0,30.39,NW,317,3.0,-999.0,77,-99.99,,,0.00,weatherlink.com 1.10,2013-10-26 08:07:00,
2013-10-26 04:22:00,28.5,22.0,30.39,NW,317,2.0,-999.0,76,-99.99,,,0.00,weatherlink.com 1.10,2013-10-26 08:22:00,
2013-10-26 04:37:00,28.8,22.0,30.39,NW,317,0.0,-999.0,74,-99.99,,,0.00,weatherlink.com 1.10,2013-10-26 08:37:00,
2013-10-26 04:52:00,30.4,21.0,30.38,NW,317,3.0,-999.0,68,-99.99,,,0.00,weatherlink.com 1.10,2013-10-26 08:52:00,
2013-10-26 05:07:00,30.3,21.0,30.38,NW,317,4.0,-999.0,68,-99.99,,,0.00,weatherlink.com 1.10,2013-10-26 09:07:00,
2013-10-26 05:22:00,28.8,21.0,30.38,SW,226,3.0,-999.0,73,-99.99,,,0.00,weatherlink.com 1.10,2013-10-26 09:22:00,
2013-10-26 05:37:00,28.4,21.0,30.38,SW,223,5.0,-999.0,75,-99.99,,,0.00,weatherlink.com 1.10,2013-10-26 09:37:00,
2013-10-26 05:52:00,27.9,22.0,30.38,SW,227,6.0,-999.0,77,-99.99,,,0.00,weatherlink.com 1.10,2013-10-26 09:52:00,
2013-10-26 06:07:00,27.8,22.0,30.38,SW,227,5.0,-999.0,78,-99.99,,,0.00,weatherlink.com 1.10,2013-10-26 10:07:00,
2013-10-26 06:22:00,27.7,22.0,30.38,SW,228,4.0,-999.0,78,-99.99,,,0.00,weatherlink.com 1.10,2013-10-26 10:22:00,
2013-10-26 06:37:00,27.8,22.0,30.38,SW,228,4.0,-999.0,79,-99.99,,,0.00,weatherlink.com 1.10,2013-10-26 10:37:00,
2013-10-26 06:52:00,27.7,22.0,30.38,SW,231,7.0,-999.0,79,-99.99,,,0.00,weatherlink.com 1.10,2013-10-26 10:52:00,
2013-10-26 07:07:00,28.0,22.0,30.38,WSW,238,9.0,-999.0,79,-99.99,,,0.00,weatherlink.com 1.10,2013-10-26 11:07:00,
2013-10-26 07:22:00,27.9,22.0,30.38,WSW,238,8.0,-999.0,79,-99.99,,,0.00,weatherlink.com 1.10,2013-10-26 11:22:00,
2013-10-26 07:37:00,28.1,22.0,30.38,WSW,240,6.0,-999.0,78,-99.99,,,0.00,weatherlink.com 1.10,2013-10-26 11:37:00,
2013-10-26 07:52:00,28.1,22.0,30.38,WSW,240,6.0,-999.0,79,-99.99,,,0.00,weatherlink.com 1.10,2013-10-26 11:52:00,
2013-10-26 08:07:00,28.8,23.0,30.38,WSW,246,6.0,-999.0,78,-99.99,,,0.00,weatherlink.com 1.10,2013-10-26 12:07:00,
2013-10-26 08:22:00,29.1,23.0,30.38,SW,227,9.0,-999.0,77,-99.99,,,0.00,weatherlink.com 1.10,2013-10-26 12:22:00,
2013-10-26 08:37:00,29.2,23.0,30.39,SW,233,6.0,-999.0,77,-99.99,,,0.00,weatherlink.com 1.10,2013-10-26 12:37:00,
2013-10-26 08:52:00,29.6,23.0,30.39,WSW,237,6.0,-999.0,77,-99.99,,,0.00,weatherlink.com 1.10,2013-10-26 12:52:00,
2013-10-26 09:07:00,30.3,24.0,30.39,SW,216,4.0,-999.0,76,-99.99,,,0.00,weatherlink.com 1.10,2013-10-26 13:07:00,
2013-10-26 09:22:00,32.0,24.0,30.39,SW,223,4.0,-999.0,73,-99.99,,,0.00,weatherlink.com 1.10,2013-10-26 13:22:00,
2013-10-26 09:38:00,33.5,24.0,30.39,SW,225,3.0,-999.0,68,-99.99,,,0.00,weatherlink.com 1.10,2013-10-26 13:38:00,
2013-10-26 09:52:00,34.5,24.0,30.38,WSW,246,2.0,-999.0,65,-99.99,,,0.00,weatherlink.com 1.10,2013-10-26 13:52:00,
2013-10-26 10:07:00,35.6,25.0,30.38,WSW,246,0.0,-999.0,65,-99.99,,,0.00,weatherlink.com 1.10,2013-10-26 14:07:00,
2013-10-26 10:22:00,36.2,23.0,30.37,WSW,248,1.0,-999.0,59,-99.99,,,0.00,weatherlink.com 1.10,2013-10-26 14:22:00,
2013-10-26 10:37:00,37.2,25.0,30.37,West,279,0.0,-999.0,62,-99.99,,,0.00,weatherlink.com 1.10,2013-10-26 14:37:00,
2013-10-26 10:52:00,37.4,22.0,30.37,WSW,254,3.0,-999.0,54,-99.99,,,0.00,weatherlink.com 1.10,2013-10-26 14:52:00,
2013-10-26 11:07:00,37.9,22.0,30.37,West,263,0.0,-999.0,52,-99.99,,,0.00,weatherlink.com 1.10,2013-10-26 15:07:00,
2013-10-26 11:22:00,38.6,22.0,30.36,West,269,3.0,-999.0,52,-99.99,,,0.00,weatherlink.com 1.10,2013-10-26 15:22:00,
2013-10-26 11:37:00,38.8,23.0,30.36,North,360,4.0,-999.0,53,-99.99,,,0.00,weatherlink.com 1.10,2013-10-26 15:37:00,
2013-10-26 11:52:00,40.4,25.0,30.35,North,350,2.0,-999.0,54,-99.99,,,0.00,weatherlink.com 1.10,2013-10-26 15:52:00,
2013-10-26 12:07:00,40.2,26.0,30.35,SW,235,3.0,-999.0,58,-99.99,,,0.00,weatherlink.com 1.10,2013-10-26 16:07:00,
2013-10-26 12:22:00,39.8,26.0,30.34,SW,225,3.0,-999.0,59,-99.99,,,0.00,weatherlink.com 1.10,2013-10-26 16:22:00,
2013-10-26 12:37:00,40.1,27.0,30.34,SSW,208,3.0,-999.0,61,-99.99,,,0.00,weatherlink.com 1.10,2013-10-26 16:37:00,
2013-10-26 12:52:00,39.2,29.0,30.34,SSW,200,5.0,-999.0,66,-99.99,,,0.00,weatherlink.com 1.10,2013-10-26 16:52:00,
2013-10-26 13:07:00,39.2,29.0,30.33,WSW,251,9.0,-999.0,66,-99.99,,,0.00,weatherlink.com 1.10,2013-10-26 17:07:00,
2013-10-26 13:22:00,40.9,29.0,30.32,SW,226,8.0,-999.0,64,-99.99,,,0.00,weatherlink.com 1.10,2013-10-26 17:22:00,
2013-10-26 13:37:00,40.2,28.0,30.31,WSW,241,8.0,-999.0,63,-99.99,,,0.00,weatherlink.com 1.10,2013-10-26 17:37:00,
2013-10-26 13:52:00,40.5,29.0,30.30,WSW,250,8.0,-999.0,64,-99.99,,,0.00,weatherlink.com 1.10,2013-10-26 17:52:00,
2013-10-26 14:07:00,41.1,29.0,30.29,SW,224,8.0,-999.0,63,-99.99,,,0.00,weatherlink.com 1.10,2013-10-26 18:07:00,
2013-10-26 14:22:00,41.7,30.0,30.28,SW,232,6.0,-999.0,64,-99.99,,,0.00,weatherlink.com 1.10,2013-10-26 18:22:00,
2013-10-26 14:37:00,42.7,31.0,30.28,SSW,205,8.0,-999.0,64,-99.99,,,0.00,weatherlink.com 1.10,2013-10-26 18:37:00,
2013-10-26 14:52:00,42.5,31.0,30.26,SSW,207,8.0,-999.0,63,-99.99,,,0.00,weatherlink.com 1.10,2013-10-26 18:52:00,
2013-10-26 15:07:00,44.1,31.0,30.26,West,273,6.0,-999.0,61,-99.99,,,0.00,weatherlink.com 1.10,2013-10-26 19:07:00,
2013-10-26 15:22:00,44.0,30.0,30.26,SSW,199,5.0,-999.0,59,-99.99,,,0.00,weatherlink.com 1.10,2013-10-26 19:22:00,
2013-10-26 15:37:00,43.9,30.0,30.25,SW,225,7.0,-999.0,59,-99.99,,,0.00,weatherlink.com 1.10,2013-10-26 19:37:00,
2013-10-26 15:52:00,43.9,30.0,30.25,SSW,209,6.0,-999.0,58,-99.99,,,0.00,weatherlink.com 1.10,2013-10-26 19:52:00,
2013-10-26 16:07:00,43.7,30.0,30.25,WSW,251,5.0,-999.0,60,-99.99,,,0.00,weatherlink.com 1.10,2013-10-26 20:07:00,
2013-10-26 16:22:00,45.0,31.0,30.24,WSW,247,3.0,-999.0,59,-99.99,,,0.00,weatherlink.com 1.10,2013-10-26 20:22:00,
2013-10-26 16:37:00,43.7,30.0,30.24,WSW,246,5.0,-999.0,60,-99.99,,,0.00,weatherlink.com 1.10,2013-10-26 20:37:00,
2013-10-26 16:52:00,42.8,30.0,30.24,SW,219,8.0,-999.0,62,-99.99,,,0.00,weatherlink.com 1.10,2013-10-26 20:52:00,
2013-10-26 17:07:00,42.7,31.0,30.23,SSW,202,3.0,-999.0,63,-99.99,,,0.00,weatherlink.com 1.10,2013-10-26 21:07:00,
2013-10-26 17:22:00,42.4,31.0,30.23,South,187,7.0,-999.0,64,-99.99,,,0.00,weatherlink.com 1.10,2013-10-26 21:22:00,
2013-10-26 17:37:00,42.2,31.0,30.22,SSW,196,9.0,-999.0,64,-99.99,,,0.00,weatherlink.com 1.10,2013-10-26 21:37:00,
2013-10-26 17:52:00,42.0,31.0,30.23,SW,220,10.0,-999.0,65,-99.99,,,0.00,weatherlink.com 1.10,2013-10-26 21:52:00,
2013-10-26 18:07:00,41.8,31.0,30.22,SW,233,10.0,-999.0,66,-99.99,,,0.00,weatherlink.com 1.10,2013-10-26 22:07:00,
2013-10-26 18:22:00,41.4,32.0,30.22,SW,217,7.0,-999.0,68,-99.99,,,0.00,weatherlink.com 1.10,2013-10-26 22:22:00,
2013-10-26 18:37:00,41.3,32.0,30.22,South,190,3.0,-999.0,70,-99.99,,,0.00,weatherlink.com 1.10,2013-10-26 22:37:00,
2013-10-26 18:52:00,41.0,32.0,30.22,SSW,209,2.0,-999.0,70,-99.99,,,0.00,weatherlink.com 1.10,2013-10-26 22:52:00,
2013-10-26 19:07:00,40.9,32.0,30.21,SSW,209,7.0,-999.0,71,-99.99,,,0.00,weatherlink.com 1.10,2013-10-26 23:07:00,
2013-10-26 19:22:00,40.7,32.0,30.21,West,259,8.0,-999.0,71,-99.99,,,0.00,weatherlink.com 1.10,2013-10-26 23:22:00,
2013-10-26 19:37:00,40.5,32.0,30.21,SW,220,10.0,-999.0,72,-99.99,,,0.00,weatherlink.com 1.10,2013-10-26 23:37:00,
2013-10-26 19:52:00,40.4,32.0,30.20,South,187,8.0,-999.0,73,-99.99,,,0.00,weatherlink.com 1.10,2013-10-26 23:52:00,
2013-10-26 20:07:00,40.2,33.0,30.20,SW,233,9.0,-999.0,74,-99.99,,,0.00,weatherlink.com 1.10,2013-10-27 00:07:00,
2013-10-26 20:22:00,40.1,32.0,30.19,WSW,255,4.0,-999.0,74,-99.99,,,0.00,weatherlink.com 1.10,2013-10-27 00:22:00,
2013-10-26 20:37:00,40.4,32.0,30.19,West,269,6.0,-999.0,73,-99.99,,,0.00,weatherlink.com 1.10,2013-10-27 00:37:00,
2013-10-26 20:52:00,42.5,32.0,30.19,WNW,284,8.0,-999.0,66,-99.99,,,0.00,weatherlink.com 1.10,2013-10-27 00:52:00,
2013-10-26 21:07:00,44.2,33.0,30.19,WNW,286,10.0,-999.0,64,-99.99,,,0.00,weatherlink.com 1.10,2013-10-27 01:07:00,
2013-10-26 21:22:00,44.7,33.0,30.18,NW,311,6.0,-999.0,64,-99.99,,,0.00,weatherlink.com 1.10,2013-10-27 01:22:00,
2013-10-26 21:37:00,44.8,34.0,30.17,North,360,12.0,-999.0,67,-99.99,,,0.00,weatherlink.com 1.10,2013-10-27 01:37:00,
2013-10-26 21:52:00,45.8,37.0,30.17,NW,309,12.0,-999.0,70,-99.99,,,0.00,weatherlink.com 1.10,2013-10-27 01:52:00,
2013-10-26 22:07:00,46.1,38.0,30.16,WSW,258,13.0,-999.0,72,-99.99,,,0.00,weatherlink.com 1.10,2013-10-27 02:07:00,
2013-10-26 22:22:00,46.0,38.0,30.16,North,360,13.0,-999.0,74,-99.99,,,0.00,weatherlink.com 1.10,2013-10-27 02:22:00,
2013-10-26 22:37:00,46.2,39.0,30.16,WNW,291,10.0,-999.0,76,-99.99,,,0.00,weatherlink.com 1.10,2013-10-27 02:37:00,
2013-10-26 22:52:00,46.3,39.0,30.16,West,270,9.0,-999.0,77,-99.99,,,0.00,weatherlink.com 1.10,2013-10-27 02:52:00,
2013-10-26 23:07:00,45.9,39.0,30.16,West,269,14.0,-999.0,76,-99.99,,,0.00,weatherlink.com 1.10,2013-10-27 03:07:00,
2013-10-26 23:22:00,45.5,39.0,30.15,WNW,298,9.0,-999.0,79,-99.99,,,0.00,weatherlink.com 1.10,2013-10-27 03:22:00,
2013-10-26 23:37:00,43.5,37.0,30.16,North,360,22.0,-999.0,79,-99.99,,,0.00,weatherlink.com 1.10,2013-10-27 03:37:00,
2013-10-26 23:52:00,41.7,36.0,30.15,West,276,11.0,-999.0,81,-99.99,,,0.00,weatherlink.com 1.10,2013-10-27 03:52:00,